TimeCST,TemperatureF,Dew PointF,Humidity,Sea Level PressureIn,VisibilityMPH,Wind Direction,Wind SpeedMPH,Gust SpeedMPH,PrecipitationIn,Events,Conditions,WindDirDegrees,DateUTC
12:15 AM,32.0,8.6,38,29.94,10.0,Calm,Calm,-,N/A,,Clear,0,2013-02-18 06:15:00
12:35 AM,30.2,8.6,40,29.95,10.0,West,4.6,-,N/A,,Clear,270,2013-02-18 06:35:00
12:55 AM,30.2,8.6,40,29.95,10.0,West,3.5,-,N/A,,Clear,260,2013-02-18 06:55:00
1:15 AM,32.0,8.6,38,29.94,10.0,SSW,5.8,-,N/A,,Clear,210,2013-02-18 07:15:00
1:35 AM,41.0,12.2,31,29.94,10.0,Calm,Calm,-,N/A,,Clear,0,2013-02-18 07:35:00
1:55 AM,33.8,8.6,35,29.94,10.0,West,4.6,-,N/A,,Clear,260,2013-02-18 07:55:00
2:15 AM,46.4,15.8,29,29.94,10.0,WSW,12.7,-,N/A,,Clear,250,2013-02-18 08:15:00
2:35 AM,46.4,12.2,25,29.93,10.0,WSW,12.7,-,N/A,,Clear,250,2013-02-18 08:35:00
2:55 AM,46.4,14.0,27,29.93,10.0,WSW,10.4,-,N/A,,Clear,250,2013-02-18 08:55:00
3:15 AM,42.8,12.2,29,29.93,10.0,West,9.2,-,N/A,,Clear,260,2013-02-18 09:15:00
3:35 AM,39.2,12.2,33,29.93,10.0,West,11.5,-,N/A,,Clear,270,2013-02-18 09:35:00
3:55 AM,42.8,12.2,29,29.93,10.0,West,13.8,-,N/A,,Clear,260,2013-02-18 09:55:00
4:15 AM,46.4,12.2,25,29.93,10.0,WSW,15.0,-,N/A,,Clear,240,2013-02-18 10:15:00
4:35 AM,46.4,12.2,25,29.94,10.0,WSW,12.7,-,N/A,,Clear,240,2013-02-18 10:35:00
4:55 AM,42.8,10.4,27,29.94,10.0,WSW,10.4,-,N/A,,Clear,250,2013-02-18 10:55:00
5:15 AM,44.6,10.4,25,29.94,10.0,West,13.8,-,N/A,,Clear,260,2013-02-18 11:15:00
5:35 AM,46.4,12.2,25,29.95,10.0,West,17.3,-,N/A,,Clear,260,2013-02-18 11:35:00
5:55 AM,48.2,10.4,22,29.96,10.0,West,17.3,-,N/A,,Clear,260,2013-02-18 11:55:00
6:15 AM,48.2,10.4,22,29.97,10.0,West,16.1,-,N/A,,Clear,270,2013-02-18 12:15:00
6:35 AM,48.2,10.4,22,29.98,10.0,West,15.0,-,N/A,,Clear,270,2013-02-18 12:35:00
6:55 AM,48.2,10.4,22,29.99,10.0,West,16.1,-,N/A,,Clear,270,2013-02-18 12:55:00
7:15 AM,46.4,10.4,23,30.01,10.0,West,11.5,-,N/A,,Clear,270,2013-02-18 13:15:00
7:35 AM,42.8,8.6,25,30.01,10.0,West,8.1,-,N/A,,Clear,270,2013-02-18 13:35:00
7:55 AM,46.4,8.6,22,30.01,10.0,WNW,23.0,27.6,N/A,,Clear,290,2013-02-18 13:55:00
8:15 AM,48.2,8.6,20,30.03,10.0,West,21.9,27.6,N/A,,Clear,280,2013-02-18 14:15:00
8:35 AM,50.0,8.6,19,30.03,10.0,West,19.6,27.6,N/A,,Clear,280,2013-02-18 14:35:00
8:55 AM,51.8,10.4,19,30.04,10.0,West,21.9,-,N/A,,Clear,280,2013-02-18 14:55:00
9:15 AM,53.6,10.4,18,30.04,10.0,West,23.0,-,N/A,,Clear,270,2013-02-18 15:15:00
9:35 AM,53.6,10.4,18,30.05,10.0,West,25.3,31.1,N/A,,Clear,270,2013-02-18 15:35:00
9:55 AM,53.6,10.4,18,30.06,10.0,West,28.8,33.4,N/A,,Clear,270,2013-02-18 15:55:00
10:15 AM,55.4,10.4,17,30.07,10.0,West,31.1,35.7,N/A,,Clear,280,2013-02-18 16:15:00
10:35 AM,57.2,10.4,16,30.07,10.0,West,28.8,33.4,N/A,,Clear,280,2013-02-18 16:35:00
10:55 AM,57.2,10.4,16,30.08,10.0,West,26.5,39.1,N/A,,Clear,280,2013-02-18 16:55:00
11:15 AM,57.2,10.4,16,30.09,10.0,West,28.8,34.5,N/A,,Clear,280,2013-02-18 17:15:00
11:35 AM,59.0,10.4,15,30.09,10.0,West,26.5,34.5,N/A,,Clear,280,2013-02-18 17:35:00
11:55 AM,59.0,8.6,14,30.10,10.0,West,31.1,34.5,N/A,,Clear,280,2013-02-18 17:55:00
12:15 PM,60.8,8.6,13,30.11,10.0,West,24.2,29.9,N/A,,Clear,280,2013-02-18 18:15:00
12:35 PM,60.8,8.6,13,30.11,10.0,WNW,19.6,31.1,N/A,,Clear,290,2013-02-18 18:35:00
12:55 PM,60.8,8.6,13,30.11,10.0,West,21.9,29.9,N/A,,Clear,280,2013-02-18 18:55:00
1:15 PM,60.8,8.6,13,30.11,10.0,WNW,21.9,33.4,N/A,,Clear,300,2013-02-18 19:15:00
1:35 PM,60.8,6.8,12,30.09,10.0,West,24.2,29.9,N/A,,Clear,280,2013-02-18 19:35:00
1:55 PM,62.6,8.6,12,30.08,10.0,West,23.0,33.4,N/A,,Clear,280,2013-02-18 19:55:00
2:15 PM,62.6,8.6,12,30.08,10.0,WNW,19.6,29.9,N/A,,Clear,290,2013-02-18 20:15:00
2:35 PM,62.6,8.6,12,30.07,10.0,WNW,20.7,27.6,N/A,,Clear,300,2013-02-18 20:35:00
2:55 PM,62.6,8.6,12,30.06,10.0,West,19.6,25.3,N/A,,Clear,270,2013-02-18 20:55:00
3:15 PM,62.6,8.6,12,30.07,10.0,WNW,17.3,21.9,N/A,,Clear,300,2013-02-18 21:15:00
3:35 PM,62.6,6.8,11,30.07,10.0,WNW,16.1,24.2,N/A,,Clear,300,2013-02-18 21:35:00
3:55 PM,62.6,8.6,12,30.06,10.0,WNW,18.4,23.0,N/A,,Clear,300,2013-02-18 21:55:00
4:15 PM,62.6,8.6,12,30.06,10.0,West,20.7,26.5,N/A,,Clear,270,2013-02-18 22:15:00
4:35 PM,62.6,6.8,11,30.07,10.0,West,16.1,25.3,N/A,,Clear,270,2013-02-18 22:35:00
4:55 PM,62.6,6.8,11,30.08,10.0,West,13.8,-,N/A,,Clear,270,2013-02-18 22:55:00
5:15 PM,60.8,6.8,12,30.08,10.0,West,12.7,18.4,N/A,,Clear,270,2013-02-18 23:15:00
5:35 PM,62.6,6.8,11,30.07,10.0,WNW,15.0,-,N/A,,Clear,290,2013-02-18 23:35:00
5:55 PM,60.8,6.8,12,30.08,10.0,WNW,11.5,-,N/A,,Clear,290,2013-02-18 23:55:00
6:15 PM,59.0,3.2,11,30.08,10.0,WNW,11.5,-,N/A,,Clear,290,2013-02-19 00:15:00
6:35 PM,57.2,3.2,11,30.09,10.0,WNW,8.1,-,N/A,,Clear,290,2013-02-19 00:35:00
6:55 PM,51.8,-0.4,12,30.09,10.0,West,8.1,-,N/A,,Clear,280,2013-02-19 00:55:00
7:15 PM,46.4,-2.2,13,30.09,10.0,NW,4.6,-,N/A,,Clear,310,2013-02-19 01:15:00
7:35 PM,48.2,-0.4,13,30.10,10.0,NNE,6.9,-,N/A,,Clear,20,2013-02-19 01:35:00
7:55 PM,42.8,-2.2,15,30.10,10.0,NNE,8.1,-,N/A,,Clear,20,2013-02-19 01:55:00
8:15 PM,42.8,-0.4,16,30.10,10.0,NNW,6.9,-,N/A,,Clear,340,2013-02-19 02:15:00
8:35 PM,37.4,-2.2,19,30.10,10.0,NNE,3.5,-,N/A,,Clear,20,2013-02-19 02:35:00
8:55 PM,37.4,1.4,22,30.11,10.0,NNE,9.2,-,N/A,,Clear,30,2013-02-19 02:55:00
9:15 PM,37.4,-0.4,20,30.11,10.0,North,9.2,-,N/A,,Clear,360,2013-02-19 03:15:00
9:35 PM,35.6,-0.4,22,30.11,10.0,WNW,3.5,-,N/A,,Clear,300,2013-02-19 03:35:00
9:55 PM,33.8,-0.4,23,30.12,10.0,NW,4.6,-,N/A,,Clear,310,2013-02-19 03:55:00
10:15 PM,33.8,1.4,25,30.13,10.0,NW,5.8,-,N/A,,Clear,310,2013-02-19 04:15:00
10:35 PM,33.8,1.4,25,30.13,10.0,NNW,10.4,-,N/A,,Clear,330,2013-02-19 04:35:00
10:55 PM,35.6,1.4,24,30.13,10.0,NNW,4.6,-,N/A,,Clear,340,2013-02-19 04:55:00
11:15 PM,35.6,1.4,24,30.13,10.0,WNW,5.8,-,N/A,,Clear,300,2013-02-19 05:15:00
11:35 PM,35.6,3.2,26,30.12,10.0,NNW,10.4,-,N/A,,Clear,330,2013-02-19 05:35:00
11:55 PM,37.4,3.2,24,30.12,10.0,NNW,10.4,-,N/A,,Clear,330,2013-02-19 05:55:00